[[{"header":{"parameterUnit":"m.s-1","parameterCategory":1,"la1":30.2991,"la2":30.254,"lo1":-89.0895,"lo2":-89.0444,"dy":0.0017,"dx":0.0017,"nx":28,"ny":28,"refTime":"2025-03-16T03:00:00:Z","depth":0,"parameterNumber":2,"parameterNumberName":"U-component_of_WINDS"},"data":[0,0,0,0,0,0,0,0,0,0,0,0,0,0,0,0,0,0,0,0,0,0,0,0,0,0,0,0,0,0,0,0,0,0,0,0,0,0,0,0,0,0,0,0,0,0,0,0,0,0,0,0,0,0,0,0,0,0,6.2019,6.202,0,6.2114,6.2115,6.2116,6.2094,6.2092,6.209,6.2089,6.2188,6.2192,6.2196,0,0,0,0,0,0,0,0,0,0,0,0,0,6.1822,6.1826,6.2018,6.202,6.2021,6.2114,6.2115,6.2116,6.2094,6.2092,6.209,6.2088,6.2187,6.2192,6.2197,0,0,0,0,0,0,0,0,0,0,0,0,0,6.1911,6.1827,6.2018,6.2021,6.2022,6.2113,6.2115,6.2117,6.2095,6.2092,6.2089,6.2087,6.2185,6.2191,6.2198,6.2292,0,0,6.2217,6.222,0,0,0,0,0,0,0,0,6.1906,6.1918,6.2019,6.2021,6.2022,6.2089,6.2082,6.2176,6.2095,6.2067,6.2088,6.2085,6.2157,6.2166,6.219,6.2297,6.2301,6.2218,6.2222,6.2225,6.2227,0,0,0,0,0,0,0,6.19,6.1914,6.2056,6.2021,6.2023,6.2019,6.2029,6.21,6.2127,6.2069,6.2068,6.208,6.2158,6.2184,6.2192,6.2303,6.2218,6.2224,6.2228,6.223,6.2497,6.25,0,0,0,0,0,0,6.1892,6.1909,6.2053,6.2059,6.1956,6.2025,6.2035,6.2071,6.2126,6.2131,6.2082,6.2078,6.2174,6.2185,6.2195,6.2313,6.2225,6.2231,6.2235,6.2494,6.2497,6.2501,0,0,0,0,0,0,6.1888,6.1905,6.2049,6.1984,6.2002,6.2031,6.207,6.2074,6.21,6.2135,6.214,6.2103,6.2172,6.2186,6.2269,6.2316,6.2234,6.224,6.249,6.2495,6.2499,6.2546,0,0,0,0,0,0,6.1882,6.1904,6.1939,6.1985,6.2005,6.212,6.2073,6.2078,6.2111,6.2107,6.2156,6.2162,6.2171,6.226,6.2276,6.2323,6.2245,6.2486,6.2492,6.2498,6.254,6.2552,6.2561,0,0,0,0,0,6.1875,6.1948,6.1941,6.1958,6.205,6.2123,6.2135,6.2143,6.2114,6.2151,6.2174,6.216,6.2308,6.2268,6.2286,6.2336,6.2483,6.249,6.2497,6.2535,6.2549,6.2561,0,0,0,0,0,0,6.1906,6.1954,6.1946,6.2035,6.2075,6.2119,6.2165,6.2157,6.2206,6.2201,6.221,6.2222,6.2307,6.233,6.2285,6.2433,6.2392,6.2403,6.2415,6.2428,6.2438,6.2431,6.225,0,0,0,0,0,6.1923,6.1978,6.2017,6.2092,6.2112,6.2135,6.2167,6.2171,6.2213,6.223,6.2259,6.2301,6.2357,6.2394,6.2447,6.2544,6.2556,6.2587,6.2598,6.2606,6.2616,6.2672,6.2687,6.2524,6.2524,6.2524,0,0,6.1959,6.1992,6.2025,6.2099,6.213,6.2188,6.2149,6.2211,6.2255,6.2239,6.2319,6.2343,6.2391,6.2482,6.2523,6.2504,6.2664,6.2615,6.2622,6.2627,6.2681,6.2696,6.271,6.2529,6.2528,6.2528,0,0,6.2054,6.2083,6.2151,6.2183,6.2232,6.2247,6.2263,6.2309,6.2324,6.2405,6.2395,6.2448,6.2544,6.2579,6.261,6.2723,6.2713,6.274,6.2795,6.285,6.2862,6.2874,6.2916,6.2931,6.275,6.275,6.275,0,6.2093,6.2178,6.2186,6.225,6.2284,6.2273,6.2342,6.2374,6.2437,6.2462,6.2439,6.2561,6.2592,6.2693,6.2721,6.2745,6.2766,6.2734,6.286,6.2871,6.2882,6.2923,6.2938,6.2753,6.2752,6.2752,6.2752,0,6.2225,6.2285,6.2333,6.2395,6.2435,6.2501,6.2521,6.256,6.2561,6.258,6.2664,6.2702,6.2764,6.2788,6.2789,6.2891,6.2877,6.2857,6.2816,6.2901,6.2939,6.2955,6.2757,6.2756,6.2755,6.2754,0,0,6.234,6.2408,6.2425,6.2455,6.2509,6.2556,6.2624,6.2684,6.2719,6.2764,6.2822,6.2905,6.2888,6.2923,6.2929,6.2976,6.3067,6.2951,6.2952,6.2973,6.3183,6.3199,6.3217,6.3061,6.3064,6.3066,6.318,0,6.2441,6.2558,6.2569,6.2675,6.2733,6.2725,6.2784,6.2825,6.2845,6.2897,6.292,6.298,6.2951,6.2973,6.302,6.3046,6.3109,6.3037,6.3117,6.3119,6.3105,6.3236,6.3252,6.3358,6.3195,6.3197,6.3199,0,6.2574,6.2624,6.2736,6.2785,6.281,6.2862,6.2921,6.2971,6.3018,6.303,6.307,6.307,6.3142,6.3099,6.3199,6.315,6.3184,6.3202,6.3206,6.3214,6.3165,6.3249,6.3392,6.3408,6.3223,6.3221,6.3219,0,6.265,6.2745,6.2825,6.285,6.2909,6.2947,6.2973,6.3017,6.3055,6.3106,6.3131,6.3191,6.3224,6.3271,6.3288,6.3254,6.3389,6.3346,6.3402,6.3402,6.3431,6.3429,6.3582,6.3451,6.3451,6.345,6.345,0,6.2762,6.2831,6.286,6.2909,6.2988,6.3001,6.3079,6.3103,6.3144,6.3199,6.3196,6.3249,6.3268,6.3325,6.3339,6.3422,6.3436,6.3449,6.3452,6.345,6.3449,6.3472,6.3466,6.3455,6.3454,6.3453,6.3452,0,6.2859,6.2881,6.2968,6.3017,6.3031,6.3087,6.313,6.3179,6.3199,6.327,6.3288,6.332,6.3387,6.3409,6.3489,6.3499,6.3596,6.3592,6.358,6.3581,6.3637,6.3632,6.3811,6.3836,6.3688,6.3689,6.369,0,6.293,6.2983,6.3039,6.3076,6.3104,6.3163,6.3202,6.3217,6.3258,6.3318,6.336,6.3426,6.348,6.3588,6.3619,6.3682,6.3681,6.3739,6.369,6.3687,6.3684,6.3681,6.3687,6.3748,6.375,6.3751,6.3752,0,6.3054,6.3063,6.3118,6.3178,6.3224,6.3271,6.3318,6.3349,6.3372,6.3418,6.3486,6.3528,6.3611,6.3678,6.3742,6.3771,6.3767,6.3768,6.3784,6.3783,6.3774,6.3782,6.3607,6.3763,6.3762,6.3761,6.3761,6.376,6.3142,6.319,6.3237,6.33,6.3336,6.338,6.343,6.3457,6.3514,6.3582,6.3589,6.3663,6.3713,6.3799,6.3831,6.3891,6.3875,6.3899,6.3905,6.3911,6.3916,6.3764,6.3903,6.3903,6.3902,6.3902,6.3902,0,6.3267,6.3298,6.3355,6.3421,6.3471,6.3461,6.3513,6.3556,6.3621,6.3667,6.3721,6.3801,6.3866,6.3904,6.3971,6.4012,6.4011,6.4029,6.4026,6.4034,6.3926,6.3906,6.4028,6.4028,6.4028,6.4028,6.4028,6.4028,6.3339,6.3421,6.3436,6.3537,6.3568,6.364,6.3671,6.3713,6.375,6.3839,6.3894,6.3918,6.3962,6.4032,6.4092,6.4102,6.4127,6.4147,6.4155,6.4054,6.4041,6.4028,6.4009,6.4152,6.4152,6.4258,6.4259,6.426]},{"header":{"parameterUnit":"m.s-1","parameterCategory":1,"la1":30.2991,"la2":30.254,"lo1":-89.0895,"lo2":-89.0444,"dy":0.0017,"dx":0.0017,"nx":28,"ny":28,"refTime":"2025-03-16T03:00:00:Z","depth":0,"parameterNumber":3,"parameterNumberName":"V-component_of_WINDS"},"data":[0,0,0,0,0,0,0,0,0,0,0,0,0,0,0,0,0,0,0,0,0,0,0,0,0,0,0,0,0,0,0,0,0,0,0,0,0,0,0,0,0,0,0,0,0,0,0,0,0,0,0,0,0,0,0,0,0,0,-2.9231,-2.9231,0,-2.9193,-2.9193,-2.9193,-2.9219,-2.922,-2.9221,-2.9222,-2.9177,-2.9175,-2.9173,0,0,0,0,0,0,0,0,0,0,0,0,0,-2.9321,-2.9319,-2.9231,-2.9231,-2.923,-2.9194,-2.9193,-2.9192,-2.9218,-2.922,-2.9221,-2.9223,-2.9178,-2.9175,-2.9173,0,0,0,0,0,0,0,0,0,0,0,0,0,-2.9282,-2.9318,-2.9231,-2.9239,-2.9239,-2.9194,-2.9193,-2.9192,-2.9218,-2.922,-2.9222,-2.9223,-2.9179,-2.9176,-2.9172,-2.9115,0,0,-2.9162,-2.916,0,0,0,0,0,0,0,0,-2.9284,-2.9279,-2.9238,-2.9238,-2.9239,-2.9213,-2.9208,-2.9166,-2.9218,-2.9226,-2.9222,-2.9224,-2.9187,-2.9183,-2.9172,-2.9113,-2.9111,-2.9161,-2.9159,-2.9158,-2.9157,0,0,0,0,0,0,0,-2.9287,-2.928,-2.9216,-2.9238,-2.9238,-2.9243,-2.9239,-2.92,-2.9197,-2.9225,-2.9227,-2.9223,-2.9188,-2.9175,-2.9171,-2.911,-2.9162,-2.9158,-2.9156,-2.9155,-2.9003,-2.9001,0,0,0,0,0,0,-2.929,-2.9283,-2.9217,-2.9215,-2.9266,-2.924,-2.9236,-2.9219,-2.9197,-2.9196,-2.9221,-2.9224,-2.918,-2.9175,-2.917,-2.9101,-2.9158,-2.9155,-2.9153,-2.9005,-2.9002,-2.9,0,0,0,0,0,0,-2.9291,-2.9284,-2.9219,-2.9249,-2.9241,-2.9236,-2.9217,-2.9217,-2.9205,-2.9194,-2.9193,-2.921,-2.9182,-2.9175,-2.9129,-2.91,-2.9153,-2.915,-2.9007,-2.9004,-2.9001,-2.8964,0,0,0,0,0,0,-2.9294,-2.9284,-2.9263,-2.9249,-2.924,-2.918,-2.9216,-2.9215,-2.92,-2.9203,-2.9183,-2.9181,-2.9182,-2.9134,-2.9126,-2.9096,-2.9147,-2.901,-2.9006,-2.9002,-2.8967,-2.896,-2.8953,0,0,0,0,0,-2.9297,-2.9253,-2.9262,-2.9254,-2.9214,-2.9178,-2.9173,-2.9177,-2.9198,-2.9176,-2.9169,-2.9182,-2.9105,-2.9129,-2.912,-2.9089,-2.9011,-2.9007,-2.9003,-2.8971,-2.8961,-2.8953,0,0,0,0,0,0,-2.9261,-2.9251,-2.9261,-2.9211,-2.9196,-2.9183,-2.9155,-2.9167,-2.9143,-2.9147,-2.9151,-2.9146,-2.9099,-2.909,-2.9117,-2.9033,-2.9061,-2.9055,-2.904,-2.9031,-2.9024,-2.9026,-2.9144,0,0,0,0,0,-2.9248,-2.9222,-2.9213,-2.917,-2.9162,-2.916,-2.9145,-2.915,-2.9133,-2.9125,-2.9115,-2.9097,-2.9069,-2.905,-2.9023,-2.8967,-2.8962,-2.8941,-2.8934,-2.8928,-2.8922,-2.8891,-2.8882,-2.8986,-2.8986,-2.8986,0,0,-2.9219,-2.9211,-2.9193,-2.9163,-2.9151,-2.9122,-2.9154,-2.9122,-2.91,-2.912,-2.9077,-2.9069,-2.9049,-2.8998,-2.8974,-2.8988,-2.8893,-2.8923,-2.8918,-2.8915,-2.8886,-2.8876,-2.8867,-2.8983,-2.8983,-2.8984,0,0,-2.9152,-2.9144,-2.9107,-2.9095,-2.9079,-2.9078,-2.9069,-2.9055,-2.9051,-2.9009,-2.9023,-2.8996,-2.8948,-2.8933,-2.8919,-2.8849,-2.8859,-2.884,-2.8802,-2.8772,-2.8763,-2.8756,-2.873,-2.872,-2.8834,-2.8834,-2.8834,0,-2.9118,-2.9077,-2.9086,-2.9053,-2.9039,-2.9058,-2.902,-2.9008,-2.8982,-2.8971,-2.8988,-2.8928,-2.8916,-2.8862,-2.8845,-2.8833,-2.8822,-2.8841,-2.8764,-2.8757,-2.875,-2.8725,-2.8715,-2.8831,-2.8832,-2.8832,-2.8832,0,-2.9035,-2.9007,-2.8978,-2.8956,-2.8939,-2.8903,-2.8905,-2.8886,-2.8893,-2.8891,-2.8847,-2.8833,-2.8804,-2.8792,-2.8797,-2.8739,-2.8748,-2.8764,-2.8793,-2.8738,-2.8714,-2.8705,-2.8828,-2.8829,-2.883,-2.883,0,0,-2.8942,-2.8927,-2.8916,-2.8906,-2.889,-2.8867,-2.8833,-2.8807,-2.879,-2.8773,-2.8743,-2.8702,-2.8718,-2.8702,-2.8706,-2.868,-2.8625,-2.87,-2.87,-2.8685,-2.8558,-2.8544,-2.8533,-2.8633,-2.8631,-2.863,-2.8559,0,-2.8873,-2.8815,-2.8822,-2.8766,-2.8739,-2.8758,-2.8728,-2.8714,-2.8711,-2.8686,-2.8682,-2.8653,-2.8677,-2.8668,-2.8643,-2.8637,-2.8599,-2.8642,-2.8603,-2.8601,-2.8605,-2.8521,-2.8506,-2.844,-2.855,-2.8548,-2.8547,0,-2.8785,-2.8766,-2.8707,-2.8697,-2.8685,-2.8658,-2.8635,-2.8613,-2.8597,-2.8597,-2.858,-2.8589,-2.8553,-2.8585,-2.8534,-2.8563,-2.8548,-2.8543,-2.854,-2.8535,-2.8569,-2.8511,-2.8419,-2.8408,-2.8533,-2.8534,-2.8535,0,-2.8721,-2.8682,-2.8641,-2.8633,-2.8619,-2.8599,-2.8592,-2.8579,-2.8564,-2.8543,-2.8533,-2.8508,-2.8494,-2.8474,-2.8475,-2.8498,-2.8424,-2.8455,-2.8421,-2.842,-2.8402,-2.8403,-2.8304,-2.8395,-2.8395,-2.8396,-2.8396,0,-2.8642,-2.8605,-2.8613,-2.8588,-2.8546,-2.8556,-2.8514,-2.8509,-2.8498,-2.8471,-2.8486,-2.846,-2.8465,-2.8439,-2.844,-2.8398,-2.8392,-2.8389,-2.8389,-2.8386,-2.8387,-2.8375,-2.8379,-2.8393,-2.8393,-2.8394,-2.8394,0,-2.8563,-2.8567,-2.8524,-2.8516,-2.8513,-2.8483,-2.8475,-2.8451,-2.8451,-2.8417,-2.8409,-2.8407,-2.8378,-2.8378,-2.8344,-2.8345,-2.8292,-2.8298,-2.8297,-2.8298,-2.8263,-2.8266,-2.8151,-2.8136,-2.8239,-2.8238,-2.8238,0,-2.8512,-2.8484,-2.8474,-2.8458,-2.8451,-2.8425,-2.841,-2.8418,-2.8401,-2.8382,-2.836,-2.8332,-2.831,-2.8262,-2.8256,-2.823,-2.8235,-2.8197,-2.823,-2.8229,-2.8232,-2.8233,-2.823,-2.8189,-2.8188,-2.8187,-2.8186,0,-2.8419,-2.8423,-2.8402,-2.8381,-2.8363,-2.8347,-2.8331,-2.8317,-2.8324,-2.8304,-2.8275,-2.8258,-2.8225,-2.8196,-2.8172,-2.8163,-2.8174,-2.8176,-2.8166,-2.8162,-2.8162,-2.816,-2.8277,-2.8178,-2.8179,-2.8179,-2.818,-2.818,-2.8351,-2.8328,-2.8317,-2.8293,-2.8283,-2.8269,-2.8246,-2.8244,-2.8221,-2.8195,-2.8201,-2.8168,-2.8154,-2.8123,-2.8112,-2.8085,-2.8098,-2.8085,-2.8081,-2.8077,-2.8072,-2.8169,-2.8081,-2.8081,-2.8081,-2.8081,-2.8082,0,-2.8259,-2.8254,-2.8232,-2.8211,-2.8192,-2.8208,-2.8193,-2.8175,-2.8146,-2.8133,-2.8112,-2.8079,-2.8052,-2.8046,-2.8019,-2.7999,-2.8004,-2.7992,-2.7992,-2.799,-2.8063,-2.8073,-2.7989,-2.7989,-2.7989,-2.7989,-2.7989,-2.7989,-2.8208,-2.8169,-2.8172,-2.8128,-2.8123,-2.8092,-2.8082,-2.8069,-2.8058,-2.8021,-2.8,-2.7997,-2.7986,-2.7959,-2.7935,-2.7934,-2.7922,-2.7908,-2.7908,-2.7976,-2.7985,-2.7994,-2.8003,-2.7906,-2.7906,-2.7838,-2.7837,-2.7837]}]]